Location: 22
(39.7117°N, 89.5929°W)
Time: 01:20:42
(UTC-05:00)

A-11 Canister half - Pass Details

Date: 17 June 2023
Orbit: 1524 x 1684 km, 47.3° (Epoch: 29 September)

Event Time Altitude Azimuth Distance (km) Brightness Sun altitude
Rises 23:13:00 0° 296° (WNW) 4,675 12.4 -22.2°
Reaches altitude 10° 23:16:02 10° 298° (WNW) 3,692 11.7 -22.4°
Maximum altitude 23:25:22 78° 25° (NNE) 1,571 9.0 -23.2°
Enters shadow 23:32:29 20° 110° (ESE) 3,014 10.2 -23.7°
